Index of /20260507/WXO-DD/model_rdps/10km/06/079
Name Last modified Size Description
Parent Directory -
20260507T06Z_MSC_RDPS_AbsoluteVorticity_IsbL-0250_RLatLon0.09_PT079H.grib2 2026-05-07 09:04 605K
20260507T06Z_MSC_RDPS_AbsoluteVorticity_IsbL-0500_RLatLon0.09_PT079H.grib2 2026-05-07 09:04 568K
20260507T06Z_MSC_RDPS_AbsoluteVorticity_IsbL-0700_RLatLon0.09_PT079H.grib2 2026-05-07 09:04 615K
20260507T06Z_MSC_RDPS_AbsoluteVorticity_IsbL-0850_RLatLon0.09_PT079H.grib2 2026-05-07 09:04 784K
20260507T06Z_MSC_RDPS_AirTemp_AGL-120m_RLatLon0.09_PT079H.grib2 2026-05-07 09:04 383K
20260507T06Z_MSC_RDPS_AirTemp_AGL-2m_RLatLon0.09_PT079H.grib2 2026-05-07 09:04 624K
20260507T06Z_MSC_RDPS_AirTemp_AGL-40m_RLatLon0.09_PT079H.grib2 2026-05-07 09:04 396K
20260507T06Z_MSC_RDPS_AirTemp_AGL-80m_RLatLon0.09_PT079H.grib2 2026-05-07 09:04 389K
20260507T06Z_MSC_RDPS_AirTemp_IsbL-0001_RLatLon0.09_PT079H.grib2 2026-05-07 09:04 240K
20260507T06Z_MSC_RDPS_AirTemp_IsbL-0005_RLatLon0.09_PT079H.grib2 2026-05-07 09:04 378K
20260507T06Z_MSC_RDPS_AirTemp_IsbL-0010_RLatLon0.09_PT079H.grib2 2026-05-07 09:04 390K
20260507T06Z_MSC_RDPS_AirTemp_IsbL-0020_RLatLon0.09_PT079H.grib2 2026-05-07 09:04 317K
20260507T06Z_MSC_RDPS_AirTemp_IsbL-0030_RLatLon0.09_PT079H.grib2 2026-05-07 09:04 334K
20260507T06Z_MSC_RDPS_AirTemp_IsbL-0050_RLatLon0.09_PT079H.grib2 2026-05-07 09:04 308K
20260507T06Z_MSC_RDPS_AirTemp_IsbL-0100_RLatLon0.09_PT079H.grib2 2026-05-07 09:04 428K
20260507T06Z_MSC_RDPS_AirTemp_IsbL-0150_RLatLon0.09_PT079H.grib2 2026-05-07 09:04 404K
20260507T06Z_MSC_RDPS_AirTemp_IsbL-0175_RLatLon0.09_PT079H.grib2 2026-05-07 09:04 400K
20260507T06Z_MSC_RDPS_AirTemp_IsbL-0200_RLatLon0.09_PT079H.grib2 2026-05-07 09:04 405K
20260507T06Z_MSC_RDPS_AirTemp_IsbL-0225_RLatLon0.09_PT079H.grib2 2026-05-07 09:04 408K
20260507T06Z_MSC_RDPS_AirTemp_IsbL-0250_RLatLon0.09_PT079H.grib2 2026-05-07 09:04 420K
20260507T06Z_MSC_RDPS_AirTemp_IsbL-0275_RLatLon0.09_PT079H.grib2 2026-05-07 09:04 403K
20260507T06Z_MSC_RDPS_AirTemp_IsbL-0300_RLatLon0.09_PT079H.grib2 2026-05-07 09:04 432K
20260507T06Z_MSC_RDPS_AirTemp_IsbL-0350_RLatLon0.09_PT079H.grib2 2026-05-07 09:04 419K
20260507T06Z_MSC_RDPS_AirTemp_IsbL-0400_RLatLon0.09_PT079H.grib2 2026-05-07 09:04 423K
20260507T06Z_MSC_RDPS_AirTemp_IsbL-0450_RLatLon0.09_PT079H.grib2 2026-05-07 09:04 432K
20260507T06Z_MSC_RDPS_AirTemp_IsbL-0500_RLatLon0.09_PT079H.grib2 2026-05-07 09:04 442K
20260507T06Z_MSC_RDPS_AirTemp_IsbL-0550_RLatLon0.09_PT079H.grib2 2026-05-07 09:04 458K
20260507T06Z_MSC_RDPS_AirTemp_IsbL-0600_RLatLon0.09_PT079H.grib2 2026-05-07 09:04 474K
20260507T06Z_MSC_RDPS_AirTemp_IsbL-0650_RLatLon0.09_PT079H.grib2 2026-05-07 09:04 489K
20260507T06Z_MSC_RDPS_AirTemp_IsbL-0700_RLatLon0.09_PT079H.grib2 2026-05-07 09:04 515K
20260507T06Z_MSC_RDPS_AirTemp_IsbL-0750_RLatLon0.09_PT079H.grib2 2026-05-07 09:04 560K
20260507T06Z_MSC_RDPS_AirTemp_IsbL-0800_RLatLon0.09_PT079H.grib2 2026-05-07 09:04 580K
20260507T06Z_MSC_RDPS_AirTemp_IsbL-0850_RLatLon0.09_PT079H.grib2 2026-05-07 09:04 638K
20260507T06Z_MSC_RDPS_AirTemp_IsbL-0875_RLatLon0.09_PT079H.grib2 2026-05-07 09:04 657K
20260507T06Z_MSC_RDPS_AirTemp_IsbL-0900_RLatLon0.09_PT079H.grib2 2026-05-07 09:04 662K
20260507T06Z_MSC_RDPS_AirTemp_IsbL-0925_RLatLon0.09_PT079H.grib2 2026-05-07 09:04 530K
20260507T06Z_MSC_RDPS_AirTemp_IsbL-0950_RLatLon0.09_PT079H.grib2 2026-05-07 09:04 529K
20260507T06Z_MSC_RDPS_AirTemp_IsbL-0970_RLatLon0.09_PT079H.grib2 2026-05-07 09:04 657K
20260507T06Z_MSC_RDPS_AirTemp_IsbL-0985_RLatLon0.09_PT079H.grib2 2026-05-07 09:04 641K
20260507T06Z_MSC_RDPS_AirTemp_IsbL-1000_RLatLon0.09_PT079H.grib2 2026-05-07 09:04 501K
20260507T06Z_MSC_RDPS_AirTemp_IsbL-1015_RLatLon0.09_PT079H.grib2 2026-05-07 09:04 500K
20260507T06Z_MSC_RDPS_Albedo_Sfc_RLatLon0.09_PT079H.grib2 2026-05-07 09:04 154K
20260507T06Z_MSC_RDPS_CAPE_Sfc_RLatLon0.09_PT079H.grib2 2026-05-07 09:04 1.8M
20260507T06Z_MSC_RDPS_CIN_Sfc_RLatLon0.09_PT079H.grib2 2026-05-07 09:04 1.2M
20260507T06Z_MSC_RDPS_CloudWater_EAtm_RLatLon0.09_PT079H.grib2 2026-05-07 09:04 226K
20260507T06Z_MSC_RDPS_ConvectivePrecip-Accum_Sfc_RLatLon0.09_PT079H.grib2 2026-05-07 09:04 1.3M
20260507T06Z_MSC_RDPS_DewPointDepression_AGL-2m_RLatLon0.09_PT079H.grib2 2026-05-07 09:04 406K
20260507T06Z_MSC_RDPS_DewPointDepression_IsbL-0001_RLatLon0.09_PT079H.grib2 2026-05-07 09:04 193
20260507T06Z_MSC_RDPS_DewPointDepression_IsbL-0005_RLatLon0.09_PT079H.grib2 2026-05-07 09:04 193
20260507T06Z_MSC_RDPS_DewPointDepression_IsbL-0010_RLatLon0.09_PT079H.grib2 2026-05-07 09:04 193
20260507T06Z_MSC_RDPS_DewPointDepression_IsbL-0020_RLatLon0.09_PT079H.grib2 2026-05-07 09:04 193
20260507T06Z_MSC_RDPS_DewPointDepression_IsbL-0030_RLatLon0.09_PT079H.grib2 2026-05-07 09:04 193
20260507T06Z_MSC_RDPS_DewPointDepression_IsbL-0050_RLatLon0.09_PT079H.grib2 2026-05-07 09:04 107K
20260507T06Z_MSC_RDPS_DewPointDepression_IsbL-0100_RLatLon0.09_PT079H.grib2 2026-05-07 09:04 110K
20260507T06Z_MSC_RDPS_DewPointDepression_IsbL-0150_RLatLon0.09_PT079H.grib2 2026-05-07 09:04 139K
20260507T06Z_MSC_RDPS_DewPointDepression_IsbL-0175_RLatLon0.09_PT079H.grib2 2026-05-07 09:04 165K
20260507T06Z_MSC_RDPS_DewPointDepression_IsbL-0200_RLatLon0.09_PT079H.grib2 2026-05-07 09:04 209K
20260507T06Z_MSC_RDPS_DewPointDepression_IsbL-0225_RLatLon0.09_PT079H.grib2 2026-05-07 09:04 258K
20260507T06Z_MSC_RDPS_DewPointDepression_IsbL-0250_RLatLon0.09_PT079H.grib2 2026-05-07 09:04 303K
20260507T06Z_MSC_RDPS_DewPointDepression_IsbL-0275_RLatLon0.09_PT079H.grib2 2026-05-07 09:04 309K
20260507T06Z_MSC_RDPS_DewPointDepression_IsbL-0300_RLatLon0.09_PT079H.grib2 2026-05-07 09:04 322K
20260507T06Z_MSC_RDPS_DewPointDepression_IsbL-0350_RLatLon0.09_PT079H.grib2 2026-05-07 09:04 329K
20260507T06Z_MSC_RDPS_DewPointDepression_IsbL-0400_RLatLon0.09_PT079H.grib2 2026-05-07 09:04 336K
20260507T06Z_MSC_RDPS_DewPointDepression_IsbL-0450_RLatLon0.09_PT079H.grib2 2026-05-07 09:04 342K
20260507T06Z_MSC_RDPS_DewPointDepression_IsbL-0500_RLatLon0.09_PT079H.grib2 2026-05-07 09:04 344K
20260507T06Z_MSC_RDPS_DewPointDepression_IsbL-0550_RLatLon0.09_PT079H.grib2 2026-05-07 09:04 353K
20260507T06Z_MSC_RDPS_DewPointDepression_IsbL-0600_RLatLon0.09_PT079H.grib2 2026-05-07 09:04 366K
20260507T06Z_MSC_RDPS_DewPointDepression_IsbL-0650_RLatLon0.09_PT079H.grib2 2026-05-07 09:04 376K
20260507T06Z_MSC_RDPS_DewPointDepression_IsbL-0700_RLatLon0.09_PT079H.grib2 2026-05-07 09:04 387K
20260507T06Z_MSC_RDPS_DewPointDepression_IsbL-0750_RLatLon0.09_PT079H.grib2 2026-05-07 09:04 405K
20260507T06Z_MSC_RDPS_DewPointDepression_IsbL-0800_RLatLon0.09_PT079H.grib2 2026-05-07 09:04 447K
20260507T06Z_MSC_RDPS_DewPointDepression_IsbL-0850_RLatLon0.09_PT079H.grib2 2026-05-07 09:04 472K
20260507T06Z_MSC_RDPS_DewPointDepression_IsbL-0875_RLatLon0.09_PT079H.grib2 2026-05-07 09:04 466K
20260507T06Z_MSC_RDPS_DewPointDepression_IsbL-0900_RLatLon0.09_PT079H.grib2 2026-05-07 09:04 453K
20260507T06Z_MSC_RDPS_DewPointDepression_IsbL-0925_RLatLon0.09_PT079H.grib2 2026-05-07 09:04 443K
20260507T06Z_MSC_RDPS_DewPointDepression_IsbL-0950_RLatLon0.09_PT079H.grib2 2026-05-07 09:04 437K
20260507T06Z_MSC_RDPS_DewPointDepression_IsbL-0970_RLatLon0.09_PT079H.grib2 2026-05-07 09:04 433K
20260507T06Z_MSC_RDPS_DewPointDepression_IsbL-0985_RLatLon0.09_PT079H.grib2 2026-05-07 09:04 430K
20260507T06Z_MSC_RDPS_DewPointDepression_IsbL-1000_RLatLon0.09_PT079H.grib2 2026-05-07 09:04 426K
20260507T06Z_MSC_RDPS_DewPointDepression_IsbL-1015_RLatLon0.09_PT079H.grib2 2026-05-07 09:04 418K
20260507T06Z_MSC_RDPS_DewPoint_AGL-2m_RLatLon0.09_PT079H.grib2 2026-05-07 09:04 392K
20260507T06Z_MSC_RDPS_DownwardLongwaveRadiationFlux-Accum_Sfc_RLatLon0.09_PT079H.grib2 2026-05-07 09:04 437K
20260507T06Z_MSC_RDPS_DownwardShortwaveRadiationFlux-Accum_NTAtm_RLatLon0.09_PT079H.grib2 2026-05-07 09:04 160K
20260507T06Z_MSC_RDPS_DownwardShortwaveRadiationFlux-Accum_Sfc_RLatLon0.09_PT079H.grib2 2026-05-07 09:04 638K
20260507T06Z_MSC_RDPS_FreezingRain-Accum1h_Sfc_RLatLon0.09_PT079H.grib2 2026-05-07 09:04 59K
20260507T06Z_MSC_RDPS_FreezingRain-Accum_Sfc_RLatLon0.09_PT079H.grib2 2026-05-07 09:04 207K
20260507T06Z_MSC_RDPS_GeopotentialHeight_IsbL-0001_RLatLon0.09_PT079H.grib2 2026-05-07 09:04 244K
20260507T06Z_MSC_RDPS_GeopotentialHeight_IsbL-0005_RLatLon0.09_PT079H.grib2 2026-05-07 09:04 338K
20260507T06Z_MSC_RDPS_GeopotentialHeight_IsbL-0010_RLatLon0.09_PT079H.grib2 2026-05-07 09:04 339K
20260507T06Z_MSC_RDPS_GeopotentialHeight_IsbL-0020_RLatLon0.09_PT079H.grib2 2026-05-07 09:04 306K
20260507T06Z_MSC_RDPS_GeopotentialHeight_IsbL-0030_RLatLon0.09_PT079H.grib2 2026-05-07 09:04 307K
20260507T06Z_MSC_RDPS_GeopotentialHeight_IsbL-0050_RLatLon0.09_PT079H.grib2 2026-05-07 09:04 308K
20260507T06Z_MSC_RDPS_GeopotentialHeight_IsbL-0100_RLatLon0.09_PT079H.grib2 2026-05-07 09:04 285K
20260507T06Z_MSC_RDPS_GeopotentialHeight_IsbL-0150_RLatLon0.09_PT079H.grib2 2026-05-07 09:04 226K
20260507T06Z_MSC_RDPS_GeopotentialHeight_IsbL-0175_RLatLon0.09_PT079H.grib2 2026-05-07 09:04 228K
20260507T06Z_MSC_RDPS_GeopotentialHeight_IsbL-0200_RLatLon0.09_PT079H.grib2 2026-05-07 09:04 230K
20260507T06Z_MSC_RDPS_GeopotentialHeight_IsbL-0225_RLatLon0.09_PT079H.grib2 2026-05-07 09:04 232K
20260507T06Z_MSC_RDPS_GeopotentialHeight_IsbL-0250_RLatLon0.09_PT079H.grib2 2026-05-07 09:04 234K
20260507T06Z_MSC_RDPS_GeopotentialHeight_IsbL-0275_RLatLon0.09_PT079H.grib2 2026-05-07 09:04 234K
20260507T06Z_MSC_RDPS_GeopotentialHeight_IsbL-0300_RLatLon0.09_PT079H.grib2 2026-05-07 09:04 234K
20260507T06Z_MSC_RDPS_GeopotentialHeight_IsbL-0350_RLatLon0.09_PT079H.grib2 2026-05-07 09:04 230K
20260507T06Z_MSC_RDPS_GeopotentialHeight_IsbL-0400_RLatLon0.09_PT079H.grib2 2026-05-07 09:04 226K
20260507T06Z_MSC_RDPS_GeopotentialHeight_IsbL-0450_RLatLon0.09_PT079H.grib2 2026-05-07 09:04 294K
20260507T06Z_MSC_RDPS_GeopotentialHeight_IsbL-0500_RLatLon0.09_PT079H.grib2 2026-05-07 09:04 288K
20260507T06Z_MSC_RDPS_GeopotentialHeight_IsbL-0550_RLatLon0.09_PT079H.grib2 2026-05-07 09:04 284K
20260507T06Z_MSC_RDPS_GeopotentialHeight_IsbL-0600_RLatLon0.09_PT079H.grib2 2026-05-07 09:04 280K
20260507T06Z_MSC_RDPS_GeopotentialHeight_IsbL-0650_RLatLon0.09_PT079H.grib2 2026-05-07 09:04 251K
20260507T06Z_MSC_RDPS_GeopotentialHeight_IsbL-0700_RLatLon0.09_PT079H.grib2 2026-05-07 09:04 250K
20260507T06Z_MSC_RDPS_GeopotentialHeight_IsbL-0750_RLatLon0.09_PT079H.grib2 2026-05-07 09:04 254K
20260507T06Z_MSC_RDPS_GeopotentialHeight_IsbL-0800_RLatLon0.09_PT079H.grib2 2026-05-07 09:04 347K
20260507T06Z_MSC_RDPS_GeopotentialHeight_IsbL-0850_RLatLon0.09_PT079H.grib2 2026-05-07 09:04 358K
20260507T06Z_MSC_RDPS_GeopotentialHeight_IsbL-0875_RLatLon0.09_PT079H.grib2 2026-05-07 09:04 362K
20260507T06Z_MSC_RDPS_GeopotentialHeight_IsbL-0900_RLatLon0.09_PT079H.grib2 2026-05-07 09:04 365K
20260507T06Z_MSC_RDPS_GeopotentialHeight_IsbL-0925_RLatLon0.09_PT079H.grib2 2026-05-07 09:04 366K
20260507T06Z_MSC_RDPS_GeopotentialHeight_IsbL-0950_RLatLon0.09_PT079H.grib2 2026-05-07 09:04 371K
20260507T06Z_MSC_RDPS_GeopotentialHeight_IsbL-0970_RLatLon0.09_PT079H.grib2 2026-05-07 09:04 376K
20260507T06Z_MSC_RDPS_GeopotentialHeight_IsbL-0985_RLatLon0.09_PT079H.grib2 2026-05-07 09:04 385K
20260507T06Z_MSC_RDPS_GeopotentialHeight_IsbL-1000_RLatLon0.09_PT079H.grib2 2026-05-07 09:04 397K
20260507T06Z_MSC_RDPS_GeopotentialHeight_IsbL-1015_RLatLon0.09_PT079H.grib2 2026-05-07 09:04 414K
20260507T06Z_MSC_RDPS_HighLowPressure_MSL_RLatLon0.09_PT079H.json 2026-05-07 08:56 18K
20260507T06Z_MSC_RDPS_Humidex_Sfc_RLatLon0.09_PT079H.grib2 2026-05-07 09:04 2.4M
20260507T06Z_MSC_RDPS_IcePellets-Accum1h_Sfc_RLatLon0.09_PT079H.grib2 2026-05-07 09:04 14K
20260507T06Z_MSC_RDPS_IcePellets-Accum_Sfc_RLatLon0.09_PT079H.grib2 2026-05-07 09:04 32K
20260507T06Z_MSC_RDPS_KIndex_Sfc_RLatLon0.09_PT079H.grib2 2026-05-07 09:04 2.5M
20260507T06Z_MSC_RDPS_LatentHeatNetFlux_Sfc_RLatLon0.09_PT079H.grib2 2026-05-07 09:04 357K
20260507T06Z_MSC_RDPS_LiftedIndex-MU-VT_IsbL-0500_RLatLon0.09_PT079H.grib2 2026-05-07 09:04 2.4M
20260507T06Z_MSC_RDPS_NetLongwaveRadiationFlux-Accum_Sfc_RLatLon0.09_PT079H.grib2 2026-05-07 09:04 487K
20260507T06Z_MSC_RDPS_NetShortwaveRadiationFlux-Accum_Sfc_RLatLon0.09_PT079H.grib2 2026-05-07 09:04 640K
20260507T06Z_MSC_RDPS_PlanetaryBoundaryLayerHeight_Sfc_RLatLon0.09_PT079H.grib2 2026-05-07 09:04 1.1M
20260507T06Z_MSC_RDPS_Precip-Accum1h_Sfc_RLatLon0.09_PT079H.grib2 2026-05-07 09:04 1.3M
20260507T06Z_MSC_RDPS_Precip-Accum_Sfc_RLatLon0.09_PT079H.grib2 2026-05-07 09:04 2.1M
20260507T06Z_MSC_RDPS_PrecipRate_Sfc_RLatLon0.09_PT079H.grib2 2026-05-07 09:04 185K
20260507T06Z_MSC_RDPS_PrecipType-Instant_Sfc_RLatLon0.09_PT079H.grib2 2026-05-07 09:04 602K
20260507T06Z_MSC_RDPS_Pressure-Trend3h_Sfc_RLatLon0.09_PT079H.grib2 2026-05-07 09:04 1.2M
20260507T06Z_MSC_RDPS_Pressure_MSL_RLatLon0.09_PT079H.grib2 2026-05-07 09:04 326K
20260507T06Z_MSC_RDPS_Pressure_PVU-1.5_RLatLon0.09_PT079H.grib2 2026-05-07 09:04 2.5M
20260507T06Z_MSC_RDPS_Pressure_PVU-1_RLatLon0.09_PT079H.grib2 2026-05-07 09:04 2.4M
20260507T06Z_MSC_RDPS_Pressure_PVU-2_RLatLon0.09_PT079H.grib2 2026-05-07 09:04 2.4M
20260507T06Z_MSC_RDPS_Pressure_Sfc_RLatLon0.09_PT079H.grib2 2026-05-07 09:04 499K
20260507T06Z_MSC_RDPS_RadiativeTemp_Sfc_RLatLon0.09_PT079H.grib2 2026-05-07 09:04 389K
20260507T06Z_MSC_RDPS_Rain-Accum1h_Sfc_RLatLon0.09_PT079H.grib2 2026-05-07 09:04 662K
20260507T06Z_MSC_RDPS_Rain-Accum_Sfc_RLatLon0.09_PT079H.grib2 2026-05-07 09:04 1.9M
20260507T06Z_MSC_RDPS_RelativeHumidity_AGL-2m_RLatLon0.09_PT079H.grib2 2026-05-07 09:04 1.0M
20260507T06Z_MSC_RDPS_RelativeHumidity_IsbL-0010_RLatLon0.09_PT079H.grib2 2026-05-07 09:04 573K
20260507T06Z_MSC_RDPS_RelativeHumidity_IsbL-0020_RLatLon0.09_PT079H.grib2 2026-05-07 09:04 525K
20260507T06Z_MSC_RDPS_RelativeHumidity_IsbL-0030_RLatLon0.09_PT079H.grib2 2026-05-07 09:04 625K
20260507T06Z_MSC_RDPS_RelativeHumidity_IsbL-0050_RLatLon0.09_PT079H.grib2 2026-05-07 09:04 353K
20260507T06Z_MSC_RDPS_RelativeHumidity_IsbL-0100_RLatLon0.09_PT079H.grib2 2026-05-07 09:04 275K
20260507T06Z_MSC_RDPS_RelativeHumidity_IsbL-0150_RLatLon0.09_PT079H.grib2 2026-05-07 09:04 403K
20260507T06Z_MSC_RDPS_RelativeHumidity_IsbL-0175_RLatLon0.09_PT079H.grib2 2026-05-07 09:04 459K
20260507T06Z_MSC_RDPS_RelativeHumidity_IsbL-0200_RLatLon0.09_PT079H.grib2 2026-05-07 09:04 531K
20260507T06Z_MSC_RDPS_RelativeHumidity_IsbL-0225_RLatLon0.09_PT079H.grib2 2026-05-07 09:04 608K
20260507T06Z_MSC_RDPS_RelativeHumidity_IsbL-0250_RLatLon0.09_PT079H.grib2 2026-05-07 09:04 696K
20260507T06Z_MSC_RDPS_RelativeHumidity_IsbL-0275_RLatLon0.09_PT079H.grib2 2026-05-07 09:04 725K
20260507T06Z_MSC_RDPS_RelativeHumidity_IsbL-0300_RLatLon0.09_PT079H.grib2 2026-05-07 09:04 759K
20260507T06Z_MSC_RDPS_RelativeHumidity_IsbL-0350_RLatLon0.09_PT079H.grib2 2026-05-07 09:04 772K
20260507T06Z_MSC_RDPS_RelativeHumidity_IsbL-0400_RLatLon0.09_PT079H.grib2 2026-05-07 09:04 789K
20260507T06Z_MSC_RDPS_RelativeHumidity_IsbL-0450_RLatLon0.09_PT079H.grib2 2026-05-07 09:04 798K
20260507T06Z_MSC_RDPS_RelativeHumidity_IsbL-0500_RLatLon0.09_PT079H.grib2 2026-05-07 09:04 799K
20260507T06Z_MSC_RDPS_RelativeHumidity_IsbL-0550_RLatLon0.09_PT079H.grib2 2026-05-07 09:04 811K
20260507T06Z_MSC_RDPS_RelativeHumidity_IsbL-0600_RLatLon0.09_PT079H.grib2 2026-05-07 09:04 831K
20260507T06Z_MSC_RDPS_RelativeHumidity_IsbL-0650_RLatLon0.09_PT079H.grib2 2026-05-07 09:04 847K
20260507T06Z_MSC_RDPS_RelativeHumidity_IsbL-0700_RLatLon0.09_PT079H.grib2 2026-05-07 09:04 877K
20260507T06Z_MSC_RDPS_RelativeHumidity_IsbL-0750_RLatLon0.09_PT079H.grib2 2026-05-07 09:04 919K
20260507T06Z_MSC_RDPS_RelativeHumidity_IsbL-0800_RLatLon0.09_PT079H.grib2 2026-05-07 09:04 1.0M
20260507T06Z_MSC_RDPS_RelativeHumidity_IsbL-0850_RLatLon0.09_PT079H.grib2 2026-05-07 09:04 1.0M
20260507T06Z_MSC_RDPS_RelativeHumidity_IsbL-0875_RLatLon0.09_PT079H.grib2 2026-05-07 09:04 1.1M
20260507T06Z_MSC_RDPS_RelativeHumidity_IsbL-0900_RLatLon0.09_PT079H.grib2 2026-05-07 09:04 1.1M
20260507T06Z_MSC_RDPS_RelativeHumidity_IsbL-0925_RLatLon0.09_PT079H.grib2 2026-05-07 09:04 1.1M
20260507T06Z_MSC_RDPS_RelativeHumidity_IsbL-0950_RLatLon0.09_PT079H.grib2 2026-05-07 09:04 1.1M
20260507T06Z_MSC_RDPS_RelativeHumidity_IsbL-0970_RLatLon0.09_PT079H.grib2 2026-05-07 09:04 1.0M
20260507T06Z_MSC_RDPS_RelativeHumidity_IsbL-0985_RLatLon0.09_PT079H.grib2 2026-05-07 09:04 1.0M
20260507T06Z_MSC_RDPS_RelativeHumidity_IsbL-1000_RLatLon0.09_PT079H.grib2 2026-05-07 09:04 1.0M
20260507T06Z_MSC_RDPS_RelativeHumidity_IsbL-1015_RLatLon0.09_PT079H.grib2 2026-05-07 09:04 1.0M
20260507T06Z_MSC_RDPS_Runoff-Accum_Sfc_RLatLon0.09_PT079H.grib2 2026-05-07 09:04 49K
20260507T06Z_MSC_RDPS_SWEATIndex_Sfc_RLatLon0.09_PT079H.grib2 2026-05-07 09:04 2.5M
20260507T06Z_MSC_RDPS_SeeingIndex_EAtm_RLatLon0.09_PT079H.grib2 2026-05-07 09:04 1.1M
20260507T06Z_MSC_RDPS_SensibleHeatNetFlux_Sfc_RLatLon0.09_PT079H.grib2 2026-05-07 09:04 243K
20260507T06Z_MSC_RDPS_ShowalterIndex_IsbL-0500_RLatLon0.09_PT079H.grib2 2026-05-07 09:04 2.6M
20260507T06Z_MSC_RDPS_SkyTransparencyIndex_EAtm_RLatLon0.09_PT079H.grib2 2026-05-07 09:04 699K
20260507T06Z_MSC_RDPS_Snow-Accum1h_Sfc_RLatLon0.09_PT079H.grib2 2026-05-07 09:04 452K
20260507T06Z_MSC_RDPS_Snow-Accum_Sfc_RLatLon0.09_PT079H.grib2 2026-05-07 09:04 695K
20260507T06Z_MSC_RDPS_SnowDensity_Sfc_RLatLon0.09_PT079H.grib2 2026-05-07 09:04 173K
20260507T06Z_MSC_RDPS_SnowDepth_Sfc_RLatLon0.09_PT079H.grib2 2026-05-07 09:04 625K
20260507T06Z_MSC_RDPS_SoilTemp_DBS-0to10cm_RLatLon0.09_PT079H.grib2 2026-05-07 09:04 242K
20260507T06Z_MSC_RDPS_SoilTemp_Sfc_RLatLon0.09_PT079H.grib2 2026-05-07 09:04 278K
20260507T06Z_MSC_RDPS_SoilVolumetricIceContent_Sfc_RLatLon0.09_PT079H.grib2 2026-05-07 09:04 143K
20260507T06Z_MSC_RDPS_SoilVolumetricWaterContent_DBS-0to10cm_RLatLon0.09_PT079H.grib2 2026-05-07 09:04 293K
20260507T06Z_MSC_RDPS_SoilVolumetricWaterContent_DBS-0to1cm_RLatLon0.09_PT079H.grib2 2026-05-07 09:04 342K
20260507T06Z_MSC_RDPS_SpecificHumidity_AGL-120m_RLatLon0.09_PT079H.grib2 2026-05-07 09:04 503K
20260507T06Z_MSC_RDPS_SpecificHumidity_AGL-2m_RLatLon0.09_PT079H.grib2 2026-05-07 09:04 672K
20260507T06Z_MSC_RDPS_SpecificHumidity_AGL-40m_RLatLon0.09_PT079H.grib2 2026-05-07 09:04 509K
20260507T06Z_MSC_RDPS_SpecificHumidity_AGL-80m_RLatLon0.09_PT079H.grib2 2026-05-07 09:04 505K
20260507T06Z_MSC_RDPS_SpecificHumidity_IsbL-0001_RLatLon0.09_PT079H.grib2 2026-05-07 09:04 359K
20260507T06Z_MSC_RDPS_SpecificHumidity_IsbL-0005_RLatLon0.09_PT079H.grib2 2026-05-07 09:04 361K
20260507T06Z_MSC_RDPS_SpecificHumidity_IsbL-0010_RLatLon0.09_PT079H.grib2 2026-05-07 09:04 389K
20260507T06Z_MSC_RDPS_SpecificHumidity_IsbL-0020_RLatLon0.09_PT079H.grib2 2026-05-07 09:04 483K
20260507T06Z_MSC_RDPS_SpecificHumidity_IsbL-0030_RLatLon0.09_PT079H.grib2 2026-05-07 09:04 364K
20260507T06Z_MSC_RDPS_SpecificHumidity_IsbL-0050_RLatLon0.09_PT079H.grib2 2026-05-07 09:04 361K
20260507T06Z_MSC_RDPS_SpecificHumidity_IsbL-0100_RLatLon0.09_PT079H.grib2 2026-05-07 09:04 402K
20260507T06Z_MSC_RDPS_SpecificHumidity_IsbL-0150_RLatLon0.09_PT079H.grib2 2026-05-07 09:04 466K
20260507T06Z_MSC_RDPS_SpecificHumidity_IsbL-0175_RLatLon0.09_PT079H.grib2 2026-05-07 09:04 422K
20260507T06Z_MSC_RDPS_SpecificHumidity_IsbL-0200_RLatLon0.09_PT079H.grib2 2026-05-07 09:04 441K
20260507T06Z_MSC_RDPS_SpecificHumidity_IsbL-0225_RLatLon0.09_PT079H.grib2 2026-05-07 09:04 450K
20260507T06Z_MSC_RDPS_SpecificHumidity_IsbL-0250_RLatLon0.09_PT079H.grib2 2026-05-07 09:04 522K
20260507T06Z_MSC_RDPS_SpecificHumidity_IsbL-0275_RLatLon0.09_PT079H.grib2 2026-05-07 09:04 481K
20260507T06Z_MSC_RDPS_SpecificHumidity_IsbL-0300_RLatLon0.09_PT079H.grib2 2026-05-07 09:04 449K
20260507T06Z_MSC_RDPS_SpecificHumidity_IsbL-0350_RLatLon0.09_PT079H.grib2 2026-05-07 09:04 568K
20260507T06Z_MSC_RDPS_SpecificHumidity_IsbL-0400_RLatLon0.09_PT079H.grib2 2026-05-07 09:04 526K
20260507T06Z_MSC_RDPS_SpecificHumidity_IsbL-0450_RLatLon0.09_PT079H.grib2 2026-05-07 09:04 581K
20260507T06Z_MSC_RDPS_SpecificHumidity_IsbL-0500_RLatLon0.09_PT079H.grib2 2026-05-07 09:04 515K
20260507T06Z_MSC_RDPS_SpecificHumidity_IsbL-0550_RLatLon0.09_PT079H.grib2 2026-05-07 09:04 568K
20260507T06Z_MSC_RDPS_SpecificHumidity_IsbL-0600_RLatLon0.09_PT079H.grib2 2026-05-07 09:04 637K
20260507T06Z_MSC_RDPS_SpecificHumidity_IsbL-0650_RLatLon0.09_PT079H.grib2 2026-05-07 09:04 557K
20260507T06Z_MSC_RDPS_SpecificHumidity_IsbL-0700_RLatLon0.09_PT079H.grib2 2026-05-07 09:04 602K
20260507T06Z_MSC_RDPS_SpecificHumidity_IsbL-0750_RLatLon0.09_PT079H.grib2 2026-05-07 09:04 660K
20260507T06Z_MSC_RDPS_SpecificHumidity_IsbL-0800_RLatLon0.09_PT079H.grib2 2026-05-07 09:04 752K
20260507T06Z_MSC_RDPS_SpecificHumidity_IsbL-0850_RLatLon0.09_PT079H.grib2 2026-05-07 09:04 820K
20260507T06Z_MSC_RDPS_SpecificHumidity_IsbL-0875_RLatLon0.09_PT079H.grib2 2026-05-07 09:04 837K
20260507T06Z_MSC_RDPS_SpecificHumidity_IsbL-0900_RLatLon0.09_PT079H.grib2 2026-05-07 09:04 845K
20260507T06Z_MSC_RDPS_SpecificHumidity_IsbL-0925_RLatLon0.09_PT079H.grib2 2026-05-07 09:04 848K
20260507T06Z_MSC_RDPS_SpecificHumidity_IsbL-0950_RLatLon0.09_PT079H.grib2 2026-05-07 09:04 849K
20260507T06Z_MSC_RDPS_SpecificHumidity_IsbL-0970_RLatLon0.09_PT079H.grib2 2026-05-07 09:04 848K
20260507T06Z_MSC_RDPS_SpecificHumidity_IsbL-0985_RLatLon0.09_PT079H.grib2 2026-05-07 09:04 702K
20260507T06Z_MSC_RDPS_SpecificHumidity_IsbL-1000_RLatLon0.09_PT079H.grib2 2026-05-07 09:04 698K
20260507T06Z_MSC_RDPS_SpecificHumidity_IsbL-1015_RLatLon0.09_PT079H.grib2 2026-05-07 09:04 688K
20260507T06Z_MSC_RDPS_SpecificHumidity_Sfc_RLatLon0.09_PT079H.grib2 2026-05-07 09:04 311K
20260507T06Z_MSC_RDPS_StormRelativeHelicity_EtaL-10000_RLatLon0.09_PT079H.grib2 2026-05-07 09:04 1.2M
20260507T06Z_MSC_RDPS_StormSeverityIndex_EtaL-10000_RLatLon0.09_PT079H.grib2 2026-05-07 09:04 1.2M
20260507T06Z_MSC_RDPS_Thickness_IsbL-0850to0700_RLatLon0.09_PT079H.grib2 2026-05-07 09:04 248K
20260507T06Z_MSC_RDPS_Thickness_IsbL-1000to0500_RLatLon0.09_PT079H.grib2 2026-05-07 09:04 195K
20260507T06Z_MSC_RDPS_Thickness_IsbL-1000to0850_RLatLon0.09_PT079H.grib2 2026-05-07 09:04 262K
20260507T06Z_MSC_RDPS_TotalCloudCover_Sfc_RLatLon0.09_PT079H.grib2 2026-05-07 09:04 678K
20260507T06Z_MSC_RDPS_TotalTotalsIndex_Sfc_RLatLon0.09_PT079H.grib2 2026-05-07 09:04 2.5M
20260507T06Z_MSC_RDPS_UVIndex-ClearSky_Sfc_RLatLon0.09_PT079H.grib2 2026-05-07 09:04 201K
20260507T06Z_MSC_RDPS_UVIndex_Sfc_RLatLon0.09_PT079H.grib2 2026-05-07 09:04 448K
20260507T06Z_MSC_RDPS_UpwardLongwaveRadiationFlux_NTAtm_RLatLon0.09_PT079H.grib2 2026-05-07 09:04 486K
20260507T06Z_MSC_RDPS_UpwardShortwaveRadiationFlux_NTAtm_RLatLon0.09_PT079H.grib2 2026-05-07 09:04 381K
20260507T06Z_MSC_RDPS_VerticalVelocity_IsbL-0250_RLatLon0.09_PT079H.grib2 2026-05-07 09:04 543K
20260507T06Z_MSC_RDPS_VerticalVelocity_IsbL-0500_RLatLon0.09_PT079H.grib2 2026-05-07 09:04 536K
20260507T06Z_MSC_RDPS_VerticalVelocity_IsbL-0700_RLatLon0.09_PT079H.grib2 2026-05-07 09:04 727K
20260507T06Z_MSC_RDPS_VerticalVelocity_IsbL-0850_RLatLon0.09_PT079H.grib2 2026-05-07 09:04 694K
20260507T06Z_MSC_RDPS_VerticalWindShear_EtaL-6500_RLatLon0.09_PT079H.grib2 2026-05-07 09:04 1.2M
20260507T06Z_MSC_RDPS_WindChill_Sfc_RLatLon0.09_PT079H.grib2 2026-05-07 09:04 1.2M
20260507T06Z_MSC_RDPS_WindDir_AGL-10m_RLatLon0.09_PT079H.grib2 2026-05-07 09:04 970K
20260507T06Z_MSC_RDPS_WindDir_AGL-120m_RLatLon0.09_PT079H.grib2 2026-05-07 09:04 609K
20260507T06Z_MSC_RDPS_WindDir_AGL-40m_RLatLon0.09_PT079H.grib2 2026-05-07 09:04 637K
20260507T06Z_MSC_RDPS_WindDir_AGL-80m_RLatLon0.09_PT079H.grib2 2026-05-07 09:04 620K
20260507T06Z_MSC_RDPS_WindDir_IsbL-0001_RLatLon0.09_PT079H.grib2 2026-05-07 09:04 274K
20260507T06Z_MSC_RDPS_WindDir_IsbL-0005_RLatLon0.09_PT079H.grib2 2026-05-07 09:04 383K
20260507T06Z_MSC_RDPS_WindDir_IsbL-0010_RLatLon0.09_PT079H.grib2 2026-05-07 09:04 372K
20260507T06Z_MSC_RDPS_WindDir_IsbL-0020_RLatLon0.09_PT079H.grib2 2026-05-07 09:04 429K
20260507T06Z_MSC_RDPS_WindDir_IsbL-0030_RLatLon0.09_PT079H.grib2 2026-05-07 09:04 419K
20260507T06Z_MSC_RDPS_WindDir_IsbL-0050_RLatLon0.09_PT079H.grib2 2026-05-07 09:04 440K
20260507T06Z_MSC_RDPS_WindDir_IsbL-0100_RLatLon0.09_PT079H.grib2 2026-05-07 09:04 418K
20260507T06Z_MSC_RDPS_WindDir_IsbL-0150_RLatLon0.09_PT079H.grib2 2026-05-07 09:04 411K
20260507T06Z_MSC_RDPS_WindDir_IsbL-0175_RLatLon0.09_PT079H.grib2 2026-05-07 09:04 435K
20260507T06Z_MSC_RDPS_WindDir_IsbL-0200_RLatLon0.09_PT079H.grib2 2026-05-07 09:04 452K
20260507T06Z_MSC_RDPS_WindDir_IsbL-0225_RLatLon0.09_PT079H.grib2 2026-05-07 09:04 461K
20260507T06Z_MSC_RDPS_WindDir_IsbL-0250_RLatLon0.09_PT079H.grib2 2026-05-07 09:04 464K
20260507T06Z_MSC_RDPS_WindDir_IsbL-0275_RLatLon0.09_PT079H.grib2 2026-05-07 09:04 488K
20260507T06Z_MSC_RDPS_WindDir_IsbL-0300_RLatLon0.09_PT079H.grib2 2026-05-07 09:04 484K
20260507T06Z_MSC_RDPS_WindDir_IsbL-0350_RLatLon0.09_PT079H.grib2 2026-05-07 09:04 504K
20260507T06Z_MSC_RDPS_WindDir_IsbL-0400_RLatLon0.09_PT079H.grib2 2026-05-07 09:04 522K
20260507T06Z_MSC_RDPS_WindDir_IsbL-0450_RLatLon0.09_PT079H.grib2 2026-05-07 09:04 542K
20260507T06Z_MSC_RDPS_WindDir_IsbL-0500_RLatLon0.09_PT079H.grib2 2026-05-07 09:04 557K
20260507T06Z_MSC_RDPS_WindDir_IsbL-0550_RLatLon0.09_PT079H.grib2 2026-05-07 09:04 572K
20260507T06Z_MSC_RDPS_WindDir_IsbL-0600_RLatLon0.09_PT079H.grib2 2026-05-07 09:04 591K
20260507T06Z_MSC_RDPS_WindDir_IsbL-0650_RLatLon0.09_PT079H.grib2 2026-05-07 09:04 625K
20260507T06Z_MSC_RDPS_WindDir_IsbL-0700_RLatLon0.09_PT079H.grib2 2026-05-07 09:04 667K
20260507T06Z_MSC_RDPS_WindDir_IsbL-0750_RLatLon0.09_PT079H.grib2 2026-05-07 09:04 713K
20260507T06Z_MSC_RDPS_WindDir_IsbL-0800_RLatLon0.09_PT079H.grib2 2026-05-07 09:04 784K
20260507T06Z_MSC_RDPS_WindDir_IsbL-0850_RLatLon0.09_PT079H.grib2 2026-05-07 09:04 856K
20260507T06Z_MSC_RDPS_WindDir_IsbL-0875_RLatLon0.09_PT079H.grib2 2026-05-07 09:04 882K
20260507T06Z_MSC_RDPS_WindDir_IsbL-0900_RLatLon0.09_PT079H.grib2 2026-05-07 09:04 902K
20260507T06Z_MSC_RDPS_WindDir_IsbL-0925_RLatLon0.09_PT079H.grib2 2026-05-07 09:04 912K
20260507T06Z_MSC_RDPS_WindDir_IsbL-0950_RLatLon0.09_PT079H.grib2 2026-05-07 09:04 915K
20260507T06Z_MSC_RDPS_WindDir_IsbL-0970_RLatLon0.09_PT079H.grib2 2026-05-07 09:04 919K
20260507T06Z_MSC_RDPS_WindDir_IsbL-0985_RLatLon0.09_PT079H.grib2 2026-05-07 09:04 929K
20260507T06Z_MSC_RDPS_WindDir_IsbL-1000_RLatLon0.09_PT079H.grib2 2026-05-07 09:04 946K
20260507T06Z_MSC_RDPS_WindDir_IsbL-1015_RLatLon0.09_PT079H.grib2 2026-05-07 09:04 963K
20260507T06Z_MSC_RDPS_WindGust-Max_AGL-10m_RLatLon0.09_PT079H.grib2 2026-05-07 09:04 1.0M
20260507T06Z_MSC_RDPS_WindGust-Min_AGL-10m_RLatLon0.09_PT079H.grib2 2026-05-07 09:04 1.0M
20260507T06Z_MSC_RDPS_WindGust_AGL-10m_RLatLon0.09_PT079H.grib2 2026-05-07 09:04 1.0M
20260507T06Z_MSC_RDPS_WindSpeed_AGL-10m_RLatLon0.09_PT079H.grib2 2026-05-07 09:04 1.0M
20260507T06Z_MSC_RDPS_WindSpeed_AGL-120m_RLatLon0.09_PT079H.grib2 2026-05-07 09:04 680K
20260507T06Z_MSC_RDPS_WindSpeed_AGL-40m_RLatLon0.09_PT079H.grib2 2026-05-07 09:04 679K
20260507T06Z_MSC_RDPS_WindSpeed_AGL-80m_RLatLon0.09_PT079H.grib2 2026-05-07 09:04 679K
20260507T06Z_MSC_RDPS_WindSpeed_IsbL-0001_RLatLon0.09_PT079H.grib2 2026-05-07 09:04 255K
20260507T06Z_MSC_RDPS_WindSpeed_IsbL-0005_RLatLon0.09_PT079H.grib2 2026-05-07 09:04 381K
20260507T06Z_MSC_RDPS_WindSpeed_IsbL-0010_RLatLon0.09_PT079H.grib2 2026-05-07 09:04 393K
20260507T06Z_MSC_RDPS_WindSpeed_IsbL-0020_RLatLon0.09_PT079H.grib2 2026-05-07 09:04 323K
20260507T06Z_MSC_RDPS_WindSpeed_IsbL-0030_RLatLon0.09_PT079H.grib2 2026-05-07 09:04 318K
20260507T06Z_MSC_RDPS_WindSpeed_IsbL-0050_RLatLon0.09_PT079H.grib2 2026-05-07 09:04 344K
20260507T06Z_MSC_RDPS_WindSpeed_IsbL-0100_RLatLon0.09_PT079H.grib2 2026-05-07 09:04 476K
20260507T06Z_MSC_RDPS_WindSpeed_IsbL-0150_RLatLon0.09_PT079H.grib2 2026-05-07 09:04 370K
20260507T06Z_MSC_RDPS_WindSpeed_IsbL-0175_RLatLon0.09_PT079H.grib2 2026-05-07 09:04 398K
20260507T06Z_MSC_RDPS_WindSpeed_IsbL-0200_RLatLon0.09_PT079H.grib2 2026-05-07 09:04 434K
20260507T06Z_MSC_RDPS_WindSpeed_IsbL-0225_RLatLon0.09_PT079H.grib2 2026-05-07 09:04 442K
20260507T06Z_MSC_RDPS_WindSpeed_IsbL-0250_RLatLon0.09_PT079H.grib2 2026-05-07 09:04 447K
20260507T06Z_MSC_RDPS_WindSpeed_IsbL-0275_RLatLon0.09_PT079H.grib2 2026-05-07 09:04 466K
20260507T06Z_MSC_RDPS_WindSpeed_IsbL-0300_RLatLon0.09_PT079H.grib2 2026-05-07 09:04 463K
20260507T06Z_MSC_RDPS_WindSpeed_IsbL-0350_RLatLon0.09_PT079H.grib2 2026-05-07 09:04 473K
20260507T06Z_MSC_RDPS_WindSpeed_IsbL-0400_RLatLon0.09_PT079H.grib2 2026-05-07 09:04 477K
20260507T06Z_MSC_RDPS_WindSpeed_IsbL-0450_RLatLon0.09_PT079H.grib2 2026-05-07 09:04 463K
20260507T06Z_MSC_RDPS_WindSpeed_IsbL-0500_RLatLon0.09_PT079H.grib2 2026-05-07 09:04 464K
20260507T06Z_MSC_RDPS_WindSpeed_IsbL-0550_RLatLon0.09_PT079H.grib2 2026-05-07 09:04 580K
20260507T06Z_MSC_RDPS_WindSpeed_IsbL-0600_RLatLon0.09_PT079H.grib2 2026-05-07 09:04 589K
20260507T06Z_MSC_RDPS_WindSpeed_IsbL-0650_RLatLon0.09_PT079H.grib2 2026-05-07 09:04 604K
20260507T06Z_MSC_RDPS_WindSpeed_IsbL-0700_RLatLon0.09_PT079H.grib2 2026-05-07 09:04 629K
20260507T06Z_MSC_RDPS_WindSpeed_IsbL-0750_RLatLon0.09_PT079H.grib2 2026-05-07 09:04 707K
20260507T06Z_MSC_RDPS_WindSpeed_IsbL-0800_RLatLon0.09_PT079H.grib2 2026-05-07 09:04 761K
20260507T06Z_MSC_RDPS_WindSpeed_IsbL-0850_RLatLon0.09_PT079H.grib2 2026-05-07 09:04 813K
20260507T06Z_MSC_RDPS_WindSpeed_IsbL-0875_RLatLon0.09_PT079H.grib2 2026-05-07 09:04 834K
20260507T06Z_MSC_RDPS_WindSpeed_IsbL-0900_RLatLon0.09_PT079H.grib2 2026-05-07 09:04 851K
20260507T06Z_MSC_RDPS_WindSpeed_IsbL-0925_RLatLon0.09_PT079H.grib2 2026-05-07 09:04 865K
20260507T06Z_MSC_RDPS_WindSpeed_IsbL-0950_RLatLon0.09_PT079H.grib2 2026-05-07 09:04 868K
20260507T06Z_MSC_RDPS_WindSpeed_IsbL-0970_RLatLon0.09_PT079H.grib2 2026-05-07 09:04 866K
20260507T06Z_MSC_RDPS_WindSpeed_IsbL-0985_RLatLon0.09_PT079H.grib2 2026-05-07 09:04 861K
20260507T06Z_MSC_RDPS_WindSpeed_IsbL-1000_RLatLon0.09_PT079H.grib2 2026-05-07 09:04 856K
20260507T06Z_MSC_RDPS_WindSpeed_IsbL-1015_RLatLon0.09_PT079H.grib2 2026-05-07 09:04 1.0M
20260507T06Z_MSC_RDPS_WindU_AGL-10m_RLatLon0.09_PT079H.grib2 2026-05-07 09:04 436K
20260507T06Z_MSC_RDPS_WindU_AGL-120m_RLatLon0.09_PT079H.grib2 2026-05-07 09:04 542K
20260507T06Z_MSC_RDPS_WindU_AGL-40m_RLatLon0.09_PT079H.grib2 2026-05-07 09:04 544K
20260507T06Z_MSC_RDPS_WindU_AGL-80m_RLatLon0.09_PT079H.grib2 2026-05-07 09:04 543K
20260507T06Z_MSC_RDPS_WindU_IsbL-0001_RLatLon0.09_PT079H.grib2 2026-05-07 09:04 246K
20260507T06Z_MSC_RDPS_WindU_IsbL-0005_RLatLon0.09_PT079H.grib2 2026-05-07 09:04 284K
20260507T06Z_MSC_RDPS_WindU_IsbL-0010_RLatLon0.09_PT079H.grib2 2026-05-07 09:04 294K
20260507T06Z_MSC_RDPS_WindU_IsbL-0020_RLatLon0.09_PT079H.grib2 2026-05-07 09:04 351K
20260507T06Z_MSC_RDPS_WindU_IsbL-0030_RLatLon0.09_PT079H.grib2 2026-05-07 09:04 310K
20260507T06Z_MSC_RDPS_WindU_IsbL-0050_RLatLon0.09_PT079H.grib2 2026-05-07 09:04 339K
20260507T06Z_MSC_RDPS_WindU_IsbL-0100_RLatLon0.09_PT079H.grib2 2026-05-07 09:04 432K
20260507T06Z_MSC_RDPS_WindU_IsbL-0150_RLatLon0.09_PT079H.grib2 2026-05-07 09:04 363K
20260507T06Z_MSC_RDPS_WindU_IsbL-0175_RLatLon0.09_PT079H.grib2 2026-05-07 09:04 411K
20260507T06Z_MSC_RDPS_WindU_IsbL-0200_RLatLon0.09_PT079H.grib2 2026-05-07 09:04 426K
20260507T06Z_MSC_RDPS_WindU_IsbL-0225_RLatLon0.09_PT079H.grib2 2026-05-07 09:04 433K
20260507T06Z_MSC_RDPS_WindU_IsbL-0250_RLatLon0.09_PT079H.grib2 2026-05-07 09:04 436K
20260507T06Z_MSC_RDPS_WindU_IsbL-0275_RLatLon0.09_PT079H.grib2 2026-05-07 09:04 353K
20260507T06Z_MSC_RDPS_WindU_IsbL-0300_RLatLon0.09_PT079H.grib2 2026-05-07 09:04 350K
20260507T06Z_MSC_RDPS_WindU_IsbL-0350_RLatLon0.09_PT079H.grib2 2026-05-07 09:04 358K
20260507T06Z_MSC_RDPS_WindU_IsbL-0400_RLatLon0.09_PT079H.grib2 2026-05-07 09:04 465K
20260507T06Z_MSC_RDPS_WindU_IsbL-0450_RLatLon0.09_PT079H.grib2 2026-05-07 09:04 467K
20260507T06Z_MSC_RDPS_WindU_IsbL-0500_RLatLon0.09_PT079H.grib2 2026-05-07 09:04 469K
20260507T06Z_MSC_RDPS_WindU_IsbL-0550_RLatLon0.09_PT079H.grib2 2026-05-07 09:04 470K
20260507T06Z_MSC_RDPS_WindU_IsbL-0600_RLatLon0.09_PT079H.grib2 2026-05-07 09:04 461K
20260507T06Z_MSC_RDPS_WindU_IsbL-0650_RLatLon0.09_PT079H.grib2 2026-05-07 09:04 475K
20260507T06Z_MSC_RDPS_WindU_IsbL-0700_RLatLon0.09_PT079H.grib2 2026-05-07 09:04 498K
20260507T06Z_MSC_RDPS_WindU_IsbL-0750_RLatLon0.09_PT079H.grib2 2026-05-07 09:04 653K
20260507T06Z_MSC_RDPS_WindU_IsbL-0800_RLatLon0.09_PT079H.grib2 2026-05-07 09:04 704K
20260507T06Z_MSC_RDPS_WindU_IsbL-0850_RLatLon0.09_PT079H.grib2 2026-05-07 09:04 627K
20260507T06Z_MSC_RDPS_WindU_IsbL-0875_RLatLon0.09_PT079H.grib2 2026-05-07 09:04 644K
20260507T06Z_MSC_RDPS_WindU_IsbL-0900_RLatLon0.09_PT079H.grib2 2026-05-07 09:04 656K
20260507T06Z_MSC_RDPS_WindU_IsbL-0925_RLatLon0.09_PT079H.grib2 2026-05-07 09:04 804K
20260507T06Z_MSC_RDPS_WindU_IsbL-0950_RLatLon0.09_PT079H.grib2 2026-05-07 09:04 803K
20260507T06Z_MSC_RDPS_WindU_IsbL-0970_RLatLon0.09_PT079H.grib2 2026-05-07 09:04 799K
20260507T06Z_MSC_RDPS_WindU_IsbL-0985_RLatLon0.09_PT079H.grib2 2026-05-07 09:04 796K
20260507T06Z_MSC_RDPS_WindU_IsbL-1000_RLatLon0.09_PT079H.grib2 2026-05-07 09:04 791K
20260507T06Z_MSC_RDPS_WindU_IsbL-1015_RLatLon0.09_PT079H.grib2 2026-05-07 09:04 833K
20260507T06Z_MSC_RDPS_WindV_AGL-10m_RLatLon0.09_PT079H.grib2 2026-05-07 09:04 435K
20260507T06Z_MSC_RDPS_WindV_AGL-120m_RLatLon0.09_PT079H.grib2 2026-05-07 09:04 542K
20260507T06Z_MSC_RDPS_WindV_AGL-40m_RLatLon0.09_PT079H.grib2 2026-05-07 09:04 543K
20260507T06Z_MSC_RDPS_WindV_AGL-80m_RLatLon0.09_PT079H.grib2 2026-05-07 09:04 542K
20260507T06Z_MSC_RDPS_WindV_IsbL-0001_RLatLon0.09_PT079H.grib2 2026-05-07 09:04 247K
20260507T06Z_MSC_RDPS_WindV_IsbL-0005_RLatLon0.09_PT079H.grib2 2026-05-07 09:04 285K
20260507T06Z_MSC_RDPS_WindV_IsbL-0010_RLatLon0.09_PT079H.grib2 2026-05-07 09:04 295K
20260507T06Z_MSC_RDPS_WindV_IsbL-0020_RLatLon0.09_PT079H.grib2 2026-05-07 09:04 313K
20260507T06Z_MSC_RDPS_WindV_IsbL-0030_RLatLon0.09_PT079H.grib2 2026-05-07 09:04 311K
20260507T06Z_MSC_RDPS_WindV_IsbL-0050_RLatLon0.09_PT079H.grib2 2026-05-07 09:04 337K
20260507T06Z_MSC_RDPS_WindV_IsbL-0100_RLatLon0.09_PT079H.grib2 2026-05-07 09:04 426K
20260507T06Z_MSC_RDPS_WindV_IsbL-0150_RLatLon0.09_PT079H.grib2 2026-05-07 09:04 384K
20260507T06Z_MSC_RDPS_WindV_IsbL-0175_RLatLon0.09_PT079H.grib2 2026-05-07 09:04 410K
20260507T06Z_MSC_RDPS_WindV_IsbL-0200_RLatLon0.09_PT079H.grib2 2026-05-07 09:04 329K
20260507T06Z_MSC_RDPS_WindV_IsbL-0225_RLatLon0.09_PT079H.grib2 2026-05-07 09:04 334K
20260507T06Z_MSC_RDPS_WindV_IsbL-0250_RLatLon0.09_PT079H.grib2 2026-05-07 09:04 362K
20260507T06Z_MSC_RDPS_WindV_IsbL-0275_RLatLon0.09_PT079H.grib2 2026-05-07 09:04 377K
20260507T06Z_MSC_RDPS_WindV_IsbL-0300_RLatLon0.09_PT079H.grib2 2026-05-07 09:04 373K
20260507T06Z_MSC_RDPS_WindV_IsbL-0350_RLatLon0.09_PT079H.grib2 2026-05-07 09:04 357K
20260507T06Z_MSC_RDPS_WindV_IsbL-0400_RLatLon0.09_PT079H.grib2 2026-05-07 09:04 361K
20260507T06Z_MSC_RDPS_WindV_IsbL-0450_RLatLon0.09_PT079H.grib2 2026-05-07 09:04 466K
20260507T06Z_MSC_RDPS_WindV_IsbL-0500_RLatLon0.09_PT079H.grib2 2026-05-07 09:04 465K
20260507T06Z_MSC_RDPS_WindV_IsbL-0550_RLatLon0.09_PT079H.grib2 2026-05-07 09:04 466K
20260507T06Z_MSC_RDPS_WindV_IsbL-0600_RLatLon0.09_PT079H.grib2 2026-05-07 09:04 473K
20260507T06Z_MSC_RDPS_WindV_IsbL-0650_RLatLon0.09_PT079H.grib2 2026-05-07 09:04 471K
20260507T06Z_MSC_RDPS_WindV_IsbL-0700_RLatLon0.09_PT079H.grib2 2026-05-07 09:04 493K
20260507T06Z_MSC_RDPS_WindV_IsbL-0750_RLatLon0.09_PT079H.grib2 2026-05-07 09:04 523K
20260507T06Z_MSC_RDPS_WindV_IsbL-0800_RLatLon0.09_PT079H.grib2 2026-05-07 09:04 571K
20260507T06Z_MSC_RDPS_WindV_IsbL-0850_RLatLon0.09_PT079H.grib2 2026-05-07 09:04 622K
20260507T06Z_MSC_RDPS_WindV_IsbL-0875_RLatLon0.09_PT079H.grib2 2026-05-07 09:04 640K
20260507T06Z_MSC_RDPS_WindV_IsbL-0900_RLatLon0.09_PT079H.grib2 2026-05-07 09:04 654K
20260507T06Z_MSC_RDPS_WindV_IsbL-0925_RLatLon0.09_PT079H.grib2 2026-05-07 09:04 663K
20260507T06Z_MSC_RDPS_WindV_IsbL-0950_RLatLon0.09_PT079H.grib2 2026-05-07 09:04 804K
20260507T06Z_MSC_RDPS_WindV_IsbL-0970_RLatLon0.09_PT079H.grib2 2026-05-07 09:04 800K
20260507T06Z_MSC_RDPS_WindV_IsbL-0985_RLatLon0.09_PT079H.grib2 2026-05-07 09:04 795K
20260507T06Z_MSC_RDPS_WindV_IsbL-1000_RLatLon0.09_PT079H.grib2 2026-05-07 09:04 837K
20260507T06Z_MSC_RDPS_WindV_IsbL-1015_RLatLon0.09_PT079H.grib2 2026-05-07 09:04 831K